Date,TemperatureHighF,TemperatureAvgF,TemperatureLowF,DewpointHighF,DewpointAvgF,DewpointLowF,HumidityHigh,HumidityAvg,HumidityLow,PressureMaxIn,PressureMinIn,WindSpeedMaxMPH,WindSpeedAvgMPH,GustSpeedMaxMPH,PrecipitationSumIn
2013-3-3,23,22,22,20,18,16,89,84,73,29.98,29.93,6,3,15,0.00
2013-3-4,29,25,20,22,19,16,88,79,68,30.13,29.97,7,4,20,0.00
2013-3-5,31,26,23,24,21,19,89,81,72,30.17,30.05,4,1,9,0.04
2013-3-6,38,31,21,32,27,19,93,86,76,30.22,30.03,2,0,8,0.20
2013-3-7,36,33,30,32,30,25,95,87,73,30.35,30.20,3,1,8,0.01
2013-3-8,40,34,29,28,25,22,94,72,53,30.46,30.33,6,2,15,0.02
2013-3-9,46,34,26,32,28,24,95,78,50,30.49,30.30,6,1,10,0.01
2013-3-10,61,48,33,34,29,25,78,50,32,30.30,30.03,9,3,16,0.00
2013-3-11,55,52,49,42,32,29,66,48,42,30.03,29.70,10,5,25,0.00
2013-3-12,53,39,33,45,34,28,93,82,68,29.97,29.71,6,3,16,0.25
2013-3-13,37,31,22,30,25,16,91,78,63,30.01,29.88,7,3,21,0.02
2013-3-14,31,24,17,18,13,9,86,63,40,30.14,30.01,12,6,41,0.01
2013-3-15,36,30,23,31,24,15,92,78,64,30.13,29.79,9,3,21,0.07
2013-3-16,29,25,19,21,18,15,87,74,62,30.05,29.92,5,1,12,0.01
2013-3-17,29,23,19,23,16,8,90,75,51,30.42,30.05,5,2,13,0.03
2013-3-18,33,24,17,30,17,9,92,74,49,30.42,29.80,11,5,25,0.02
2013-3-19,35,31,25,32,26,19,93,81,68,29.89,29.74,8,4,21,0.17
2013-3-20,34,26,21,23,20,17,87,76,54,29.90,29.86,8,3,16,0.01
2013-3-21,29,24,18,24,18,13,89,77,55,29.90,29.78,6,2,14,0.01
2013-3-22,31,28,24,26,24,21,91,85,74,29.99,29.80,7,4,18,0.04
2013-3-23,36,32,27,26,24,22,87,75,59,30.08,29.97,7,4,15,0.03
2013-3-24,38,31,24,27,23,21,91,73,58,30.08,29.80,4,1,9,0.01
2013-3-25,39,34,29,30,26,24,82,74,63,29.81,29.68,3,1,10,0.01
2013-3-26,45,37,30,33,28,26,86,72,54,30.00,29.79,6,2,14,0.00
2013-3-27,45,35,30,35,30,25,96,82,60,30.12,29.98,6,3,18,0.04
2013-3-28,43,36,32,37,32,28,95,85,58,30.27,30.11,5,2,13,0.16
2013-3-29,50,40,34,35,32,27,89,73,44,30.27,30.18,6,2,18,0.04
2013-3-30,51,40,29,31,26,22,85,62,38,30.27,30.11,5,2,10,0.00
2013-3-31,57,43,34,42,30,-100,92,65,39,30.11,29.67,9,4,18,0.05